When you browse on this site, cookies collect data to enhance your experience and personalize the content and advertising you see.
Visit our Privacy Policy to learn more. By continuing to use the site, you agree to this use of cookies and data.
  • In Lithuania
  • List of Countries
  • For 7 days
  • Water Temperature
  • Satellite Maps
  • Weather Map
  • Weather Widgets
  • user-avatar
    Login

    Hourly Weather Klagenfurt

    Today, 19 March, Tuesday

    Time Temperature Precipitation Wind Pressure Humidity
    00:00 -1°C° 0 mm 1 mps 692 mmHg 91%
    01:00 -1°C° 0 mm 1 mps 692 mmHg 90%
    02:00 -1°C° 0.1 mm 1 mps 692 mmHg 89%
    03:00 -1°C° 0.1 mm 1 mps 692 mmHg 89%
    04:00 -1°C° 0.1 mm 1 mps 692 mmHg 88%
    05:00 -1°C° 0.1 mm 1 mps 692 mmHg 88%
    06:00 -1°C° 0.1 mm 1 mps 692 mmHg 88%
    07:00 -1°C° 0.1 mm 1 mps 692 mmHg 87%
    08:00 0°C° 0.1 mm 1 mps 693 mmHg 85%
    09:00 -1°C° 0.1 mm 2 mps 693 mmHg 83%
    10:00 +1°C° 0.1 mm 2 mps 693 mmHg 80%
    11:00 +2°C° 0.1 mm 2 mps 693 mmHg 80%
    12:00 +3°C° 0.1 mm 2 mps 693 mmHg 80%
    13:00 +3°C° 0.1 mm 2 mps 694 mmHg 80%
    14:00 +3°C° 0.2 mm 2 mps 694 mmHg 81%
    15:00 +4°C° 0.2 mm 1 mps 694 mmHg 83%
    16:00 +4°C° 0.2 mm 1 mps 694 mmHg 84%
    17:00 +3°C° 0.1 mm 1 mps 694 mmHg 86%
    18:00 +2°C° 0.1 mm 1 mps 694 mmHg 89%
    19:00 +2°C° 0.1 mm 1 mps 695 mmHg 91%
    20:00 +1°C° 0 mm 1 mps 695 mmHg 91%
    21:00 0°C° 0 mm 1 mps 696 mmHg 92%
    22:00 0°C° 0 mm 1 mps 696 mmHg 92%
    23:00 -1°C° 0 mm 1 mps 696 mmHg 92%

    Tomorrow, 20 March, Wednesday

    Time Temperature Precipitation Wind Pressure Humidity
    00:00 -1°C° 0 mm 1 mps 697 mmHg 92%
    01:00 -2°C° 0 mm 1 mps 697 mmHg 91%
    02:00 -2°C° 0 mm 1 mps 697 mmHg 91%
    03:00 -3°C° 0 mm 1 mps 697 mmHg 90%
    04:00 -3°C° 0 mm 1 mps 697 mmHg 89%
    05:00 -3°C° 0 mm 1 mps 697 mmHg 88%
    06:00 -3°C° 0 mm 1 mps 697 mmHg 87%
    07:00 -2°C° 0 mm 1 mps 698 mmHg 86%
    08:00 0°C° 0 mm 1 mps 698 mmHg 83%
    09:00 +1°C° 0 mm 2 mps 699 mmHg 79%
    10:00 +3°C° 0 mm 2 mps 699 mmHg 76%
    11:00 +4°C° 0 mm 2 mps 699 mmHg 75%
    12:00 +5°C° 0 mm 2 mps 699 mmHg 74%
    13:00 +6°C° 0 mm 2 mps 699 mmHg 72%
    14:00 +6°C° 0 mm 2 mps 699 mmHg 72%
    15:00 +6°C° 0 mm 2 mps 699 mmHg 72%
    16:00 +7°C° 0 mm 1 mps 699 mmHg 72%
    17:00 +5°C° 0 mm 1 mps 699 mmHg 76%
    18:00 +3°C° 0 mm 1 mps 699 mmHg 80%
    19:00 +1°C° 0 mm 1 mps 699 mmHg 84%
    20:00 0°C° 0 mm 1 mps 699 mmHg 84%
    21:00 0°C° 0 mm 1 mps 700 mmHg 85%
    22:00 -1°C° 0 mm 1 mps 700 mmHg 85%
    23:00 -1°C° 0 mm 1 mps 700 mmHg 85%

    Day after tomorrow, 21 March, Thursday

    Time Temperature Precipitation Wind Pressure Humidity
    00:00 -1°C° 0 mm 1 mps 700 mmHg 85%
    01:00 -1°C° 0 mm 1 mps 700 mmHg 86%
    02:00 -2°C° 0 mm 1 mps 700 mmHg 86%
    03:00 -2°C° 0 mm 1 mps 699 mmHg 86%
    04:00 -2°C° 0 mm 1 mps 699 mmHg 86%
    05:00 -2°C° 0 mm 1 mps 699 mmHg 85%
    06:00 -1°C° 0 mm 1 mps 700 mmHg 83%
    07:00 -1°C° 0 mm 1 mps 700 mmHg 82%
    08:00 +2°C° 0 mm 1 mps 700 mmHg 77%
    09:00 +4°C° 0 mm 1 mps 700 mmHg 72%
    10:00 +6°C° 0 mm 1 mps 701 mmHg 68%
    11:00 +7°C° 0 mm 1 mps 700 mmHg 65%
    12:00 +8°C° 0 mm 1 mps 700 mmHg 63%
    13:00 +9°C° 0 mm 1 mps 700 mmHg 61%
    14:00 +9°C° 0 mm 1 mps 700 mmHg 62%
    15:00 +9°C° 0 mm 1 mps 699 mmHg 64%
    16:00 +9°C° 0 mm 1 mps 699 mmHg 65%
    17:00 +7°C° 0 mm 1 mps 699 mmHg 70%
    18:00 +5°C° 0 mm 1 mps 699 mmHg 76%
    19:00 +2°C° 0 mm 0 mps 698 mmHg 81%
    20:00 +1°C° 0 mm 0 mps 699 mmHg 81%
    21:00 +1°C° 0 mm 0 mps 699 mmHg 82%
    22:00 0°C° 0 mm 0 mps 699 mmHg 82%
    23:00 +1°C° 0 mm 1 mps 699 mmHg 82%

    22 March, Friday

    Time Temperature Precipitation Wind Pressure Humidity
    00:00 +1°C° 0 mm 1 mps 699 mmHg 82%
    01:00 +1°C° 0 mm 1 mps 699 mmHg 82%
    02:00 +1°C° 0 mm 1 mps 698 mmHg 81%
    03:00 0°C° 0 mm 1 mps 698 mmHg 80%
    04:00 0°C° 0 mm 1 mps 698 mmHg 79%
    05:00 +1°C° 0 mm 1 mps 698 mmHg 77%
    06:00 +1°C° 0 mm 1 mps 698 mmHg 75%
    07:00 +2°C° 0 mm 1 mps 698 mmHg 73%
    08:00 +4°C° 0 mm 1 mps 698 mmHg 68%
    09:00 +7°C° 0 mm 1 mps 699 mmHg 63%
    10:00 +10°C° 0 mm 1 mps 699 mmHg 58%
    11:00 +11°C° 0 mm 1 mps 699 mmHg 56%
    12:00 +12°C° 0 mm 1 mps 699 mmHg 54%
    13:00 +13°C° 0 mm 1 mps 699 mmHg 52%
    14:00 +13°C° 0 mm 1 mps 698 mmHg 53%
    15:00 +13°C° 0 mm 1 mps 698 mmHg 55%
    16:00 +13°C° 0 mm 1 mps 698 mmHg 57%
    17:00 +10°C° 0 mm 1 mps 697 mmHg 63%
    18:00 +7°C° 0 mm 0 mps 697 mmHg 70%
    19:00 +4°C° 0 mm 0 mps 697 mmHg 76%
    20:00 +4°C° 0 mm 0 mps 697 mmHg 76%
    21:00 +4°C° 0 mm 0 mps 697 mmHg 77%
    22:00 +4°C° 0 mm 1 mps 698 mmHg 77%
    23:00 +4°C° 0 mm 1 mps 698 mmHg 78%

    23 March, Saturday

    Time Temperature Precipitation Wind Pressure Humidity
    00:00 +4°C° 0 mm 1 mps 697 mmHg 78%
    01:00 +4°C° 0 mm 1 mps 697 mmHg 78%
    02:00 +3°C° 0 mm 1 mps 697 mmHg 78%
    03:00 +3°C° 0 mm 1 mps 697 mmHg 78%
    04:00 +3°C° 0 mm 1 mps 697 mmHg 79%
    05:00 +4°C° 0 mm 1 mps 697 mmHg 78%
    06:00 +4°C° 0 mm 1 mps 697 mmHg 77%
    07:00 +4°C° 0 mm 1 mps 697 mmHg 76%
    08:00 +7°C° 0 mm 1 mps 697 mmHg 70%
    09:00 +9°C° 0 mm 0 mps 698 mmHg 63%
    10:00 +12°C° 0 mm 0 mps 698 mmHg 57%
    11:00 +13°C° 0 mm 0 mps 698 mmHg 53%
    12:00 +15°C° 0 mm 1 mps 698 mmHg 50%
    13:00 +16°C° 0 mm 1 mps 698 mmHg 47%
    14:00 +16°C° 0 mm 1 mps 697 mmHg 48%
    15:00 +16°C° 0 mm 1 mps 697 mmHg 50%
    16:00 +15°C° 0 mm 1 mps 696 mmHg 52%
    17:00 +13°C° 0 mm 1 mps 696 mmHg 58%
    18:00 +10°C° 0 mm 1 mps 696 mmHg 65%
    19:00 +7°C° 0 mm 0 mps 695 mmHg 72%
    20:00 +6°C° 0 mm 0 mps 695 mmHg 74%
    21:00 +7°C° 0 mm 1 mps 696 mmHg 76%
    22:00 +6°C° 0 mm 1 mps 696 mmHg 78%
    23:00 +6°C° 0 mm 1 mps 695 mmHg 79%

    24 March, Sunday

    Time Temperature Precipitation Wind Pressure Humidity
    00:00 +6°C° 0 mm 1 mps 695 mmHg 80%
    01:00 +6°C° 0 mm 1 mps 695 mmHg 81%
    02:00 +5°C° 0 mm 1 mps 695 mmHg 82%
    03:00 +5°C° 0 mm 1 mps 694 mmHg 83%
    04:00 +5°C° 0 mm 1 mps 694 mmHg 84%
    05:00 +5°C° 0 mm 1 mps 694 mmHg 83%
    06:00 +6°C° 0 mm 1 mps 694 mmHg 82%
    07:00 +6°C° 0 mm 1 mps 694 mmHg 81%
    08:00 +9°C° 0 mm 1 mps 695 mmHg 73%
    09:00 +12°C° 0 mm 1 mps 695 mmHg 64%
    10:00 +14°C° 0 mm 1 mps 695 mmHg 56%
    11:00 +16°C° 0 mm 1 mps 695 mmHg 53%
    12:00 +18°C° 0 mm 1 mps 695 mmHg 51%
    13:00 +19°C° 0 mm 1 mps 695 mmHg 48%
    14:00 +18°C° 0 mm 1 mps 695 mmHg 50%
    15:00 +18°C° 0 mm 1 mps 694 mmHg 52%
    16:00 +16°C° 0 mm 1 mps 694 mmHg 54%
    17:00 +14°C° 0 mm 1 mps 693 mmHg 63%
    18:00 +12°C° 0 mm 1 mps 693 mmHg 72%
    19:00 +9°C° 0 mm 1 mps 692 mmHg 81%
    20:00 +9°C° 0 mm 1 mps 692 mmHg 82%
    21:00 +8°C° 0 mm 1 mps 693 mmHg 84%
    22:00 +7°C° 0 mm 1 mps 693 mmHg 85%
    23:00 +7°C° 0 mm 1 mps 693 mmHg 86%
    Show more